M I D A S
Marine Information and Data Acquisition System
Tripno 2155 of the Zeeleeuw from 2011-08-01 08:31:43 to 2011-08-01 09:38:39
Back to CruiseResearch ActivitiesStationsMapUnderway DataData graphs

EquipmentUnitsComments
TimeDGPSUTC
LatitudeDGPSDM.mWGS84
LongitudeDGPSDM.mWGS84
SpeedMeteo Stationm/sRelative wind speed
DirectionMeteo StationdegRelative wind direction
TemperatureMeteo Stationdeg CelciusAir temperature
PressureMeteo StationPaAtmospheric pressure
HumidityMeteo Station%Relative humidity
Missing or incorrect values are displayed as -999
Metereological data collected by the RV Zeeleeuw from 2011-08-01 06:11:46 to 2011-08-01 10:16:22
                                                                                    Next 1000 lines
Time Latitude Longitude Speed Direction Temperature Pressure Humidity
2011-08-01 06:11:56 51°13.635 2°56.021 -999 334 13.5 101540 47
2011-08-01 06:12:01 51°13.635 2°56.021 -999 282 13.5 101540 47
2011-08-01 06:12:06 51°13.635 2°56.021 -999 328 13.5 101540 47
2011-08-01 06:12:11 51°13.635 2°56.02 -999 282 13.6 101540 47
2011-08-01 06:12:16 51°13.635 2°56.02 -999 339 13.6 101540 47
2011-08-01 06:12:21 51°13.635 2°56.02 -999 282 13.6 101540 47
2011-08-01 06:12:26 51°13.636 2°56.02 -999 345 13.6 101540 47
2011-08-01 06:12:30 51°13.635 2°56.02 -999 282 13.6 101540 47
2011-08-01 06:12:35 51°13.636 2°56.02 -999 339 13.6 101540 47
2011-08-01 06:12:40 51°13.636 2°56.019 -999 282 13.6 101540 47
2011-08-01 06:12:45 51°13.636 2°56.019 -999 335 13.6 101540 47
2011-08-01 06:12:50 51°13.636 2°56.019 -999 282 13.6 101540 45
2011-08-01 06:12:55 51°13.636 2°56.019 -999 348 13.6 101540 45
2011-08-01 06:13:00 51°13.636 2°56.019 -999 282 13.6 101540 47
2011-08-01 06:13:05 51°13.636 2°56.019 -999 352 13.6 101540 47
2011-08-01 06:13:10 51°13.636 2°56.019 -999 282 13.6 101540 47
2011-08-01 06:13:15 51°13.636 2°56.019 -999 332 13.6 101540 47
2011-08-01 06:13:20 51°13.637 2°56.019 -999 282 13.6 101540 46
2011-08-01 06:13:26 51°13.637 2°56.019 -999 340 13.6 101540 46
2011-08-01 06:13:31 51°13.637 2°56.019 -999 282 13.6 101540 46
2011-08-01 06:13:36 51°13.637 2°56.019 -999 327 13.6 101540 46
2011-08-01 06:13:41 51°13.637 2°56.019 -999 332 13.6 101540 46
2011-08-01 06:13:46 51°13.637 2°56.019 -999 340 13.6 101540 46
2011-08-01 06:13:51 51°13.637 2°56.019 -999 282 13.6 101540 47
2011-08-01 06:13:56 51°13.637 2°56.02 -999 333 13.6 101540 47
2011-08-01 06:14:01 51°13.637 2°56.02 -999 281 13.6 101540 47
2011-08-01 06:14:06 51°13.637 2°56.02 -999 336 13.6 101540 47
2011-08-01 06:14:11 51°13.636 2°56.02 -999 282 13.6 101540 47
2011-08-01 06:14:16 51°13.636 2°56.02 -999 334 13.6 101540 47
2011-08-01 06:14:20 51°13.637 2°56.02 -999 282 13.6 101540 47
2011-08-01 06:14:26 51°13.637 2°56.02 -999 342 13.6 101540 47
2011-08-01 06:14:30 51°13.637 2°56.02 -999 282 13.6 101540 47
2011-08-01 06:14:35 51°13.637 2°56.02 -999 346 13.6 101540 47
2011-08-01 06:14:41 51°13.637 2°56.02 -999 282 13.6 101540 47
2011-08-01 06:14:46 51°13.637 2°56.02 -999 344 13.6 101540 47
2011-08-01 06:14:50 51°13.637 2°56.02 -999 282 13.6 101540 47
2011-08-01 06:14:55 51°13.637 2°56.02 -999 337 13.6 101540 47
2011-08-01 06:15:01 51°13.637 2°56.02 -999 282 13.6 101540 47
2011-08-01 06:15:06 51°13.637 2°56.02 -999 331 13.6 101540 47
2011-08-01 06:15:10 51°13.637 2°56.02 -999 282 13.7 101540 47
2011-08-01 06:15:15 51°13.637 2°56.019 -999 335 13.7 101540 47
2011-08-01 06:15:21 51°13.637 2°56.019 -999 282 13.7 101550 47
2011-08-01 06:15:26 51°13.637 2°56.019 -999 336 13.7 101550 47
2011-08-01 06:15:31 51°13.637 2°56.019 -999 282 13.6 101540 45
2011-08-01 06:15:36 51°13.637 2°56.019 -999 336 13.6 101540 45
2011-08-01 06:15:40 51°13.637 2°56.019 -999 282 13.7 101540 47
2011-08-01 06:15:45 51°13.637 2°56.019 -999 335 13.7 101540 47
2011-08-01 06:15:50 51°13.637 2°56.018 -999 282 13.7 101550 47
2011-08-01 06:15:56 51°13.637 2°56.019 -999 346 13.7 101550 47
2011-08-01 06:16:01 51°13.637 2°56.019 -999 282 13.7 101540 47
2011-08-01 06:16:05 51°13.637 2°56.019 -999 343 13.7 101540 47
2011-08-01 06:16:10 51°13.637 2°56.019 -999 351 13.7 101550 47
2011-08-01 06:16:15 51°13.637 2°56.019 -999 338 13.7 101550 47
2011-08-01 06:16:20 51°13.637 2°56.019 -999 282 13.7 101540 47
2011-08-01 06:16:25 51°13.637 2°56.019 -999 332 13.7 101540 47
2011-08-01 06:16:30 51°13.637 2°56.019 -999 282 13.7 101550 47
2011-08-01 06:16:35 51°13.637 2°56.019 -999 325 13.7 101550 47
2011-08-01 06:16:40 51°13.636 2°56.019 -999 342 13.7 101540 47
2011-08-01 06:16:45 51°13.636 2°56.019 -999 331 13.7 101540 47
2011-08-01 06:16:51 51°13.636 2°56.019 -999 282 13.7 101540 47
2011-08-01 06:16:56 51°13.636 2°56.019 -999 348 13.7 101540 47
2011-08-01 06:17:01 51°13.636 2°56.019 -999 282 13.7 101540 47
2011-08-01 06:17:05 51°13.636 2°56.019 -999 351 13.7 101540 47
2011-08-01 06:17:11 51°13.636 2°56.019 -999 282 13.7 101540 47
2011-08-01 06:17:16 51°13.636 2°56.019 -999 334 13.7 101540 47
2011-08-01 06:17:20 51°13.637 2°56.019 -999 282 13.7 101540 47
2011-08-01 06:17:25 51°13.637 2°56.019 -999 341 13.7 101540 47
2011-08-01 06:17:31 51°13.637 2°56.019 -999 282 13.7 101540 47
2011-08-01 06:17:36 51°13.637 2°56.019 -999 343 13.7 101540 47
2011-08-01 06:17:40 51°13.637 2°56.019 -999 358 13.7 101540 46
2011-08-01 06:17:45 51°13.637 2°56.019 -999 348 13.7 101540 46
2011-08-01 06:17:50 51°13.637 2°56.019 -999 282 13.7 101550 47
2011-08-01 06:17:55 51°13.637 2°56.019 -999 343 13.7 101550 47
2011-08-01 06:18:00 51°13.636 2°56.019 -999 351 13.7 101540 47
2011-08-01 06:18:05 51°13.636 2°56.019 -999 343 13.7 101540 47
2011-08-01 06:18:10 51°13.636 2°56.019 -999 282 13.7 101540 45
2011-08-01 06:18:15 51°13.636 2°56.019 -999 350 13.7 101540 45
2011-08-01 06:18:20 51°13.636 2°56.019 -999 282 13.7 101550 47
2011-08-01 06:18:25 51°13.636 2°56.019 -999 352 13.7 101550 47
2011-08-01 06:18:30 51°13.636 2°56.019 -999 282 13.7 101550 47
2011-08-01 06:18:35 51°13.636 2°56.019 -999 345 13.7 101550 47
2011-08-01 06:18:40 51°13.636 2°56.019 -999 282 13.7 101540 46
2011-08-01 06:18:45 51°13.636 2°56.019 -999 329 13.7 101550 47
2011-08-01 06:18:50 51°13.636 2°56.019 -999 282 13.7 101550 47
2011-08-01 06:18:55 51°13.636 2°56.019 -999 337 13.7 101550 47
2011-08-01 06:19:00 51°13.636 2°56.019 -999 282 13.7 101550 47
2011-08-01 06:19:05 51°13.636 2°56.019 -999 335 13.7 101550 47
2011-08-01 06:19:10 51°13.636 2°56.019 -999 282 13.7 101550 47
2011-08-01 06:19:15 51°13.636 2°56.019 -999 341 13.7 101550 47
2011-08-01 06:19:20 51°13.636 2°56.019 -999 282 13.7 101540 47
2011-08-01 06:19:25 51°13.636 2°56.019 -999 338 13.7 101540 47
2011-08-01 06:19:30 51°13.636 2°56.019 -999 282 13.7 101550 47
2011-08-01 06:19:35 51°13.636 2°56.019 -999 332 13.7 101550 47
2011-08-01 06:19:40 51°13.636 2°56.019 -999 282 13.7 101550 47
2011-08-01 06:19:45 51°13.636 2°56.019 -999 342 13.7 101550 47
2011-08-01 06:19:50 51°13.636 2°56.018 -999 282 13.7 101550 47
2011-08-01 06:19:55 51°13.636 2°56.018 -999 337 13.7 101550 47
2011-08-01 06:20:00 51°13.636 2°56.018 -999 354 13.7 101550 47
2011-08-01 06:20:05 51°13.636 2°56.018 -999 348 13.7 101550 47
2011-08-01 06:20:11 51°13.636 2°56.018 -999 282 13.8 101550 47
2011-08-01 06:20:16 51°13.636 2°56.018 -999 351 13.8 101550 47
2011-08-01 06:20:21 51°13.636 2°56.018 -999 282 13.8 101550 47
2011-08-01 06:20:25 51°13.636 2°56.018 -999 338 13.8 101550 47
2011-08-01 06:20:31 51°13.636 2°56.018 -999 349 13.8 101550 47
2011-08-01 06:20:36 51°13.636 2°56.019 -999 353 13.8 101550 47
2011-08-01 06:20:41 51°13.636 2°56.018 -999 350 13.8 101550 47
2011-08-01 06:20:45 51°13.636 2°56.018 -999 342 13.8 101550 47
2011-08-01 06:20:51 51°13.636 2°56.018 -999 282 13.8 101550 45
2011-08-01 06:20:56 51°13.636 2°56.018 -999 349 13.8 101550 45
2011-08-01 06:21:01 51°13.636 2°56.018 -999 282 13.8 101550 46
2011-08-01 06:21:05 51°13.636 2°56.018 -999 335 13.8 101550 46
2011-08-01 06:21:11 51°13.635 2°56.018 -999 282 13.8 101550 47
2011-08-01 06:21:16 51°13.635 2°56.018 -999 350 13.8 101550 47
2011-08-01 06:21:21 51°13.635 2°56.018 -999 349 13.8 101550 47
2011-08-01 06:21:26 51°13.635 2°56.018 -999 339 13.8 101550 47
2011-08-01 06:21:31 51°13.635 2°56.018 -999 349 13.8 101550 47
2011-08-01 06:21:36 51°13.635 2°56.019 -999 347 13.8 101550 47
2011-08-01 06:21:41 51°13.635 2°56.019 -999 282 13.8 101550 47
2011-08-01 06:21:46 51°13.635 2°56.019 -999 345 13.8 101550 47
2011-08-01 06:21:51 51°13.635 2°56.019 -999 349 13.8 101550 47
2011-08-01 06:21:55 51°13.635 2°56.019 -999 342 13.8 101550 47
2011-08-01 06:22:00 51°13.635 2°56.019 -999 282 13.8 101550 47
2011-08-01 06:22:05 51°13.635 2°56.019 -999 344 13.8 101550 47
2011-08-01 06:22:10 51°13.635 2°56.019 -999 282 13.8 101550 46
2011-08-01 06:22:15 51°13.636 2°56.019 -999 341 13.8 101550 46
2011-08-01 06:22:20 51°13.636 2°56.019 -999 282 13.8 101550 47
2011-08-01 06:22:25 51°13.636 2°56.019 -999 329 13.8 101550 47
2011-08-01 06:22:30 51°13.636 2°56.019 -999 282 13.8 101550 47
2011-08-01 06:22:35 51°13.636 2°56.019 -999 329 13.8 101550 47
2011-08-01 06:22:40 51°13.636 2°56.019 -999 282 13.8 101550 47
2011-08-01 06:22:45 51°13.636 2°56.019 -999 335 13.8 101550 47
2011-08-01 06:22:50 51°13.636 2°56.019 -999 282 13.8 101550 47
2011-08-01 06:22:55 51°13.636 2°56.019 -999 349 13.8 101550 47
2011-08-01 06:23:00 51°13.636 2°56.019 -999 282 13.8 101550 47
2011-08-01 06:23:05 51°13.636 2°56.019 -999 347 13.8 101550 47
2011-08-01 06:23:11 51°13.636 2°56.019 -999 282 13.8 101550 47
2011-08-01 06:23:15 51°13.636 2°56.019 -999 319 13.8 101550 47
2011-08-01 06:23:21 51°13.636 2°56.019 -999 281 13.8 101550 47
2011-08-01 06:23:26 51°13.636 2°56.019 -999 343 13.8 101550 47
2011-08-01 06:23:30 51°13.636 2°56.019 -999 282 13.8 101550 45
2011-08-01 06:23:35 51°13.636 2°56.019 -999 340 13.8 101550 45
2011-08-01 06:23:41 51°13.636 2°56.019 -999 282 13.8 101550 47
2011-08-01 06:23:45 51°13.636 2°56.019 -999 335 13.8 101550 47
2011-08-01 06:23:50 51°13.636 2°56.019 -999 282 13.8 101550 47
2011-08-01 06:23:56 51°13.636 2°56.019 -999 334 13.8 101550 47
2011-08-01 06:24:00 51°13.636 2°56.019 -999 282 13.8 101550 47
2011-08-01 06:24:05 51°13.636 2°56.019 -999 336 13.8 101550 47
2011-08-01 06:24:10 51°13.636 2°56.019 -999 282 13.8 101550 47
2011-08-01 06:24:15 51°13.636 2°56.019 -999 329 13.8 101550 47
2011-08-01 06:24:20 51°13.636 2°56.019 -999 281 13.8 101550 47
2011-08-01 06:24:25 51°13.636 2°56.019 -999 333 13.8 101550 47
2011-08-01 06:24:30 51°13.636 2°56.019 -999 282 13.8 101550 47
2011-08-01 06:24:35 51°13.636 2°56.019 -999 343 13.8 101550 47
2011-08-01 06:24:40 51°13.636 2°56.019 -999 282 13.8 101550 47
2011-08-01 06:24:45 51°13.636 2°56.019 -999 343 13.8 101550 47
2011-08-01 06:24:51 51°13.636 2°56.019 -999 282 13.8 101550 47
2011-08-01 06:24:56 51°13.636 2°56.019 -999 346 13.8 101550 47
2011-08-01 06:25:01 51°13.636 2°56.019 -999 353 13.8 101550 47
2011-08-01 06:25:06 51°13.636 2°56.019 -999 351 13.8 101550 47
2011-08-01 06:25:11 51°13.636 2°56.019 -999 350 13.8 101550 47
2011-08-01 06:25:16 51°13.636 2°56.019 -999 349 13.8 101550 47
2011-08-01 06:25:21 51°13.636 2°56.019 -999 282 13.8 101550 47
2011-08-01 06:25:26 51°13.636 2°56.019 -999 344 13.8 101550 47
2011-08-01 06:25:31 51°13.636 2°56.019 -999 282 13.8 101550 47
2011-08-01 06:25:36 51°13.636 2°56.019 -999 351 13.8 101550 47
2011-08-01 06:25:41 51°13.636 2°56.019 -999 351 13.8 101550 47
2011-08-01 06:25:46 51°13.636 2°56.019 -999 348 13.8 101550 47
2011-08-01 06:25:51 51°13.636 2°56.019 -999 351 13.8 101550 47
2011-08-01 06:25:56 51°13.636 2°56.019 -999 348 13.8 101550 47
2011-08-01 06:26:00 51°13.636 2°56.019 -999 349 13.8 101550 47
2011-08-01 06:26:05 51°13.636 2°56.019 -999 345 13.8 101550 47
2011-08-01 06:26:10 51°13.636 2°56.019 -999 282 13.8 101550 45
2011-08-01 06:26:15 51°13.636 2°56.019 -999 346 13.8 101550 45
2011-08-01 06:26:21 51°13.636 2°56.019 -999 282 13.8 101550 47
2011-08-01 06:26:26 51°13.636 2°56.019 -999 334 13.8 101550 47
2011-08-01 06:26:31 51°13.636 2°56.018 -999 282 13.8 101550 47
2011-08-01 06:26:36 51°13.636 2°56.018 -999 347 13.8 101550 47
2011-08-01 06:26:41 51°13.636 2°56.018 -999 354 13.8 101550 47
2011-08-01 06:26:46 51°13.636 2°56.018 -999 345 13.8 101550 47
2011-08-01 06:26:50 51°13.636 2°56.018 -999 350 13.9 101550 47
2011-08-01 06:26:55 51°13.636 2°56.018 -999 346 13.9 101550 47
2011-08-01 06:27:00 51°13.636 2°56.018 -999 281 13.9 101550 47
2011-08-01 06:27:05 51°13.636 2°56.018 -999 333 13.9 101550 47
2011-08-01 06:27:10 51°13.636 2°56.018 -999 282 13.9 101550 47
2011-08-01 06:27:16 51°13.636 2°56.018 -999 348 13.9 101550 47
2011-08-01 06:27:20 51°13.636 2°56.018 -999 349 13.9 101550 47
2011-08-01 06:27:25 51°13.636 2°56.018 -999 352 13.9 101550 47
2011-08-01 06:27:30 51°13.636 2°56.018 -999 282 13.9 101550 47
2011-08-01 06:27:35 51°13.636 2°56.018 -999 341 13.9 101550 47
2011-08-01 06:27:41 51°13.636 2°56.019 -999 282 13.9 101550 47
2011-08-01 06:27:45 51°13.636 2°56.019 -999 323 13.9 101550 47
2011-08-01 06:27:50 51°13.636 2°56.019 -999 282 13.9 101550 47
2011-08-01 06:27:55 51°13.636 2°56.019 -999 352 13.9 101550 47
2011-08-01 06:28:00 51°13.636 2°56.019 -999 282 13.9 101550 47
2011-08-01 06:28:05 51°13.636 2°56.019 -999 347 13.9 101550 47
2011-08-01 06:28:10 51°13.636 2°56.019 -999 352 13.9 101550 47
2011-08-01 06:28:15 51°13.637 2°56.019 -999 354 13.9 101550 47
2011-08-01 06:28:20 51°13.637 2°56.019 -999 351 14 101550 47
2011-08-01 06:28:25 51°13.637 2°56.019 -999 351 14 101550 47
2011-08-01 06:28:30 51°13.637 2°56.019 -999 282 14 101550 47
2011-08-01 06:28:35 51°13.637 2°56.019 -999 342 14 101550 47
2011-08-01 06:28:40 51°13.637 2°56.019 -999 282 14 101550 47
2011-08-01 06:28:45 51°13.637 2°56.019 -999 345 14 101550 47
2011-08-01 06:28:50 51°13.637 2°56.019 -999 356 14 101550 46
2011-08-01 06:28:55 51°13.637 2°56.019 -999 351 14 101550 46
2011-08-01 06:29:00 51°13.637 2°56.019 -999 356 14 101550 47
2011-08-01 06:29:06 51°13.637 2°56.019 -999 349 14 101550 47
2011-08-01 06:29:11 51°13.637 2°56.019 -999 282 14 101550 47
2011-08-01 06:29:15 51°13.637 2°56.019 -999 331 14 101550 47
2011-08-01 06:29:20 51°13.637 2°56.019 -999 282 14 101550 47
2011-08-01 06:29:25 51°13.637 2°56.019 -999 337 14 101550 47
2011-08-01 06:29:30 51°13.637 2°56.019 -999 281 14 101550 47
2011-08-01 06:29:35 51°13.637 2°56.019 -999 333 14 101550 47
2011-08-01 06:29:40 51°13.637 2°56.019 -999 282 14 101550 47
2011-08-01 06:29:45 51°13.637 2°56.019 -999 327 14 101550 47
2011-08-01 06:29:50 51°13.637 2°56.019 -999 282 14 101550 47
2011-08-01 06:29:55 51°13.637 2°56.019 -999 335 14 101550 47
2011-08-01 06:30:00 51°13.637 2°56.019 -999 282 14 101550 47
2011-08-01 06:30:05 51°13.637 2°56.018 -999 337 14 101550 47
2011-08-01 06:30:10 51°13.637 2°56.018 -999 282 14 101550 47
2011-08-01 06:30:15 51°13.637 2°56.018 -999 339 14 101550 47
2011-08-01 06:30:20 51°13.637 2°56.018 -999 282 14 101550 47
2011-08-01 06:30:25 51°13.637 2°56.018 -999 342 14 101550 47
2011-08-01 06:30:31 51°13.637 2°56.018 -999 282 14 101550 47
2011-08-01 06:30:36 51°13.637 2°56.018 -999 343 14 101550 47
2011-08-01 06:30:41 51°13.637 2°56.018 -999 349 14.1 101550 47
2011-08-01 06:30:46 51°13.637 2°56.018 -999 343 14.1 101550 47
2011-08-01 06:30:51 51°13.637 2°56.018 -999 282 14.1 101550 47
2011-08-01 06:30:56 51°13.637 2°56.018 -999 345 14.1 101550 47
2011-08-01 06:31:00 51°13.637 2°56.018 -999 282 14.1 101550 47
2011-08-01 06:31:05 51°13.637 2°56.018 -999 338 14.1 101550 47
2011-08-01 06:31:10 51°13.637 2°56.018 -999 282 14.1 101550 47
2011-08-01 06:31:16 51°13.637 2°56.018 -999 338 14.1 101550 47
2011-08-01 06:31:21 51°13.637 2°56.018 -999 282 14.1 101550 47
2011-08-01 06:31:26 51°13.637 2°56.018 -999 327 14.1 101550 47
2011-08-01 06:31:31 51°13.637 2°56.018 -999 281 14.1 101550 45
2011-08-01 06:31:36 51°13.637 2°56.018 -999 329 14.1 101550 45
2011-08-01 06:31:41 51°13.637 2°56.018 -999 282 14.1 101550 46
2011-08-01 06:31:46 51°13.637 2°56.018 -999 332 14.1 101550 46
2011-08-01 06:31:51 51°13.637 2°56.018 -999 282 14.1 101550 47
2011-08-01 06:31:56 51°13.637 2°56.018 -999 338 14.1 101550 47
2011-08-01 06:32:00 51°13.637 2°56.018 -999 282 14.1 101550 47
2011-08-01 06:32:05 51°13.637 2°56.018 -999 334 14.1 101550 47
2011-08-01 06:32:10 51°13.637 2°56.018 -999 282 14.1 101550 47
2011-08-01 06:32:15 51°13.637 2°56.018 -999 342 14.1 101550 47
2011-08-01 06:32:20 51°13.637 2°56.018 -999 282 14.1 101550 47
2011-08-01 06:32:25 51°13.637 2°56.017 -999 337 14.1 101550 47
2011-08-01 06:32:30 51°13.637 2°56.017 -999 282 14.1 101550 47
2011-08-01 06:32:35 51°13.637 2°56.017 -999 332 14.1 101550 47
2011-08-01 06:32:40 51°13.637 2°56.017 -999 281 14.1 101550 47
2011-08-01 06:32:46 51°13.637 2°56.017 -999 348 14.1 101550 47
2011-08-01 06:32:51 51°13.637 2°56.017 -999 282 14.2 101550 47
2011-08-01 06:32:55 51°13.637 2°56.017 -999 339 14.2 101550 47
2011-08-01 06:33:01 51°13.637 2°56.018 -999 282 14.1 101550 47
2011-08-01 06:33:06 51°13.637 2°56.018 -999 338 14.1 101550 47
2011-08-01 06:33:10 51°13.637 2°56.018 -999 282 14.2 101550 47
2011-08-01 06:33:15 51°13.636 2°56.018 -999 335 14.2 101550 47
2011-08-01 06:33:20 51°13.636 2°56.018 -999 282 14.2 101550 47
2011-08-01 06:33:25 51°13.636 2°56.018 -999 337 14.2 101550 47
2011-08-01 06:33:30 51°13.636 2°56.018 -999 282 14.1 101550 47
2011-08-01 06:33:35 51°13.636 2°56.018 -999 334 14.1 101550 47
2011-08-01 06:33:40 51°13.636 2°56.018 -999 337 14.2 101550 47
2011-08-01 06:33:45 51°13.636 2°56.018 -999 341 14.2 101550 47
2011-08-01 06:33:50 51°13.636 2°56.018 -999 282 14.2 101550 47
2011-08-01 06:33:55 51°13.636 2°56.018 -999 339 14.2 101550 47
2011-08-01 06:34:01 51°13.636 2°56.018 -999 282 14.2 101550 47
2011-08-01 06:34:06 51°13.636 2°56.018 -999 342 14.2 101550 47
2011-08-01 06:34:11 51°13.637 2°56.018 -999 282 14.1 101550 45
2011-08-01 06:34:15 51°13.637 2°56.018 -999 339 14.1 101550 45
2011-08-01 06:34:21 51°13.637 2°56.018 -999 282 14.2 101550 47
2011-08-01 06:34:25 51°13.637 2°56.018 -999 345 14.2 101550 47
2011-08-01 06:34:30 51°13.637 2°56.018 -999 282 14.2 101550 47
2011-08-01 06:34:34 51°13.637 2°56.018 -999 343 14.2 101550 47
2011-08-01 06:34:40 51°13.637 2°56.018 -999 347 14.2 101550 46
2011-08-01 06:34:45 51°13.637 2°56.018 -999 347 14.2 101550 46
2011-08-01 06:34:49 51°13.637 2°56.018 -999 282 14.2 101550 47
2011-08-01 06:34:54 51°13.637 2°56.018 -999 334 14.2 101550 47
2011-08-01 06:34:59 51°13.637 2°56.018 -999 282 14.2 101550 47
2011-08-01 06:35:04 51°13.637 2°56.018 -999 338 14.2 101550 47
2011-08-01 06:35:09 51°13.637 2°56.018 -999 281 14.2 101550 47
2011-08-01 06:35:14 51°13.637 2°56.018 -999 323 14.2 101550 47
2011-08-01 06:35:18 51°13.637 2°56.018 -999 282 14.2 101550 47
2011-08-01 06:35:23 51°13.637 2°56.018 -999 332 14.2 101550 47
2011-08-01 06:35:28 51°13.637 2°56.018 -999 282 14.2 101550 47
2011-08-01 06:35:33 51°13.637 2°56.018 -999 339 14.2 101550 47
2011-08-01 06:35:38 51°13.637 2°56.018 -999 340 14.2 101550 47
2011-08-01 06:35:43 51°13.637 2°56.017 -999 347 14.2 101550 47
2011-08-01 06:35:48 51°13.637 2°56.017 -999 281 14.2 101550 47
2011-08-01 06:35:53 51°13.637 2°56.017 -999 339 14.2 101550 47
2011-08-01 06:35:58 51°13.637 2°56.017 -999 282 14.3 101550 47
2011-08-01 06:36:03 51°13.637 2°56.017 -999 344 14.3 101550 47
2011-08-01 06:36:07 51°13.637 2°56.017 -999 282 14.3 101550 47
2011-08-01 06:36:13 51°13.637 2°56.017 -999 341 14.3 101550 47
2011-08-01 06:36:18 51°13.637 2°56.017 -999 282 14.3 101550 46
2011-08-01 06:36:23 51°13.637 2°56.017 -999 345 14.3 101550 46
2011-08-01 06:36:27 51°13.637 2°56.017 -999 281 14.3 101550 46
2011-08-01 06:36:32 51°13.637 2°56.017 -999 343 14.3 101550 46
2011-08-01 06:36:37 51°13.637 2°56.017 -999 281 14.3 101550 47
2011-08-01 06:36:42 51°13.637 2°56.017 -999 348 14.3 101550 47
2011-08-01 06:36:47 51°13.637 2°56.017 -999 282 14.3 101550 45
2011-08-01 06:36:52 51°13.637 2°56.017 -999 342 14.3 101550 45
2011-08-01 06:36:56 51°13.637 2°56.017 -999 282 14.3 101550 46
2011-08-01 06:37:03 51°13.637 2°56.017 -999 342 14.3 101550 46
2011-08-01 06:37:08 51°13.637 2°56.017 -999 282 14.2 101550 46
2011-08-01 06:37:12 51°13.637 2°56.017 -999 345 14.2 101550 46
2011-08-01 06:37:17 51°13.637 2°56.017 -999 282 14.2 101550 46
2011-08-01 06:37:22 51°13.637 2°56.017 -999 338 14.2 101550 46
2011-08-01 06:37:27 51°13.637 2°56.017 -999 282 14.2 101550 46
2011-08-01 06:37:32 51°13.637 2°56.017 -999 335 14.2 101550 46
2011-08-01 06:37:37 51°13.637 2°56.017 -999 341 14.3 101550 46
2011-08-01 06:37:42 51°13.637 2°56.017 -999 336 14.3 101550 46
2011-08-01 06:37:47 51°13.637 2°56.017 -999 281 14.2 101550 47
2011-08-01 06:37:52 51°13.637 2°56.017 -999 335 14.2 101550 47
2011-08-01 06:37:57 51°13.637 2°56.017 -999 282 14.2 101550 47
2011-08-01 06:38:02 51°13.637 2°56.017 -999 332 14.2 101550 47
2011-08-01 06:38:07 51°13.637 2°56.017 -999 282 14.3 101550 47
2011-08-01 06:38:12 51°13.637 2°56.017 -999 345 14.3 101550 47
2011-08-01 06:38:17 51°13.637 2°56.017 -999 282 14.3 101550 47
2011-08-01 06:38:22 51°13.637 2°56.017 -999 337 14.3 101550 47
2011-08-01 06:38:27 51°13.637 2°56.017 -999 281 14.3 101550 47
2011-08-01 06:38:32 51°13.638 2°56.017 -999 340 14.3 101550 47
2011-08-01 06:38:37 51°13.637 2°56.017 -999 282 14.3 101550 47
2011-08-01 06:38:42 51°13.637 2°56.017 -999 338 14.3 101550 47
2011-08-01 06:38:47 51°13.637 2°56.017 -999 282 14.3 101550 47
2011-08-01 06:38:52 51°13.637 2°56.017 -999 337 14.3 101550 47
2011-08-01 06:38:56 51°13.637 2°56.017 -999 282 14.3 101550 46
2011-08-01 06:39:02 51°13.637 2°56.017 -999 337 14.3 101550 46
2011-08-01 06:39:08 51°13.637 2°56.017 -999 282 14.3 101550 46
2011-08-01 06:39:13 51°13.638 2°56.017 -999 330 14.3 101550 46
2011-08-01 06:39:17 51°13.638 2°56.017 -999 281 14.3 101550 47
2011-08-01 06:39:22 51°13.638 2°56.017 -999 335 14.3 101550 47
2011-08-01 06:39:27 51°13.637 2°56.017 -999 282 14.3 101560 45
2011-08-01 06:39:32 51°13.637 2°56.017 -999 330 14.3 101560 45
2011-08-01 06:39:37 51°13.637 2°56.017 -999 331 14.3 101550 47
2011-08-01 06:39:42 51°13.637 2°56.017 -999 323 14.3 101550 47
2011-08-01 06:39:47 51°13.637 2°56.017 -999 282 14.4 101550 47
2011-08-01 06:39:52 51°13.637 2°56.017 -999 322 14.4 101550 47
2011-08-01 06:39:57 51°13.637 2°56.017 -999 281 14.4 101550 47
2011-08-01 06:40:02 51°13.637 2°56.017 -999 333 14.4 101550 47
2011-08-01 06:40:07 51°13.637 2°56.017 -999 282 14.4 101550 47
2011-08-01 06:40:12 51°13.637 2°56.017 -999 333 14.4 101550 47
2011-08-01 06:40:17 51°13.637 2°56.017 -999 282 14.4 101550 47
2011-08-01 06:40:22 51°13.637 2°56.017 -999 342 14.4 101550 47
2011-08-01 06:40:27 51°13.637 2°56.017 -999 282 14.4 101550 47
2011-08-01 06:40:32 51°13.637 2°56.017 -999 340 14.4 101550 47
2011-08-01 06:40:37 51°13.637 2°56.017 -999 340 14.4 101550 47
2011-08-01 06:40:42 51°13.637 2°56.017 -999 336 14.4 101550 47
2011-08-01 06:40:47 51°13.638 2°56.017 -999 282 14.4 101550 47
2011-08-01 06:40:52 51°13.638 2°56.017 -999 338 14.4 101550 47
2011-08-01 06:40:57 51°13.638 2°56.017 -999 282 14.4 101550 46
2011-08-01 06:41:02 51°13.638 2°56.017 -999 339 14.4 101550 46
2011-08-01 06:41:07 51°13.638 2°56.017 -999 281 14.4 101550 47
2011-08-01 06:41:12 51°13.638 2°56.017 -999 334 14.4 101550 47
2011-08-01 06:41:17 51°13.638 2°56.017 -999 282 14.4 101550 46
2011-08-01 06:41:22 51°13.638 2°56.017 -999 341 14.4 101550 46
2011-08-01 06:41:26 51°13.638 2°56.018 -999 282 14.4 101550 47
2011-08-01 06:41:32 51°13.637 2°56.018 -999 336 14.4 101550 47
2011-08-01 06:41:37 51°13.637 2°56.018 -999 336 14.4 101550 47
2011-08-01 06:41:42 51°13.638 2°56.018 -999 340 14.4 101550 47
2011-08-01 06:41:46 51°13.638 2°56.018 -999 282 14.4 101550 47
2011-08-01 06:41:52 51°13.638 2°56.018 -999 337 14.4 101550 47
2011-08-01 06:41:57 51°13.638 2°56.018 -999 281 14.4 101550 47
2011-08-01 06:42:02 51°13.638 2°56.018 -999 335 14.5 101550 45
2011-08-01 06:42:06 51°13.637 2°56.018 -999 282 14.5 101550 45
2011-08-01 06:42:11 51°13.637 2°56.018 -999 331 14.5 101550 45
2011-08-01 06:42:17 51°13.637 2°56.018 -999 282 14.4 101550 46
2011-08-01 06:42:22 51°13.637 2°56.018 -999 339 14.4 101550 46
2011-08-01 06:42:27 51°13.637 2°56.018 -999 282 14.4 101550 46
2011-08-01 06:42:32 51°13.637 2°56.017 -999 339 14.4 101550 46
2011-08-01 06:42:37 51°13.637 2°56.017 -999 341 14.5 101550 47
2011-08-01 06:42:42 51°13.637 2°56.017 -999 335 14.5 101550 47
2011-08-01 06:42:47 51°13.637 2°56.017 -999 282 14.5 101550 46
2011-08-01 06:42:52 51°13.637 2°56.017 -999 337 14.5 101550 46
2011-08-01 06:42:57 51°13.637 2°56.017 -999 282 14.5 101550 46
2011-08-01 06:43:02 51°13.637 2°56.017 -999 333 14.5 101550 46
2011-08-01 06:43:08 51°13.637 2°56.017 -999 282 14.5 101550 47
2011-08-01 06:43:12 51°13.637 2°56.017 -999 323 14.5 101550 47
2011-08-01 06:43:17 51°13.637 2°56.017 -999 282 14.5 101550 47
2011-08-01 06:43:22 51°13.637 2°56.017 -999 339 14.5 101550 47
2011-08-01 06:43:28 51°13.637 2°56.017 -999 282 14.5 101550 47
2011-08-01 06:43:32 51°13.637 2°56.017 -999 338 14.5 101550 47
2011-08-01 06:43:37 51°13.637 2°56.017 -999 341 14.5 101550 47
2011-08-01 06:43:42 51°13.637 2°56.017 -999 345 14.5 101550 47
2011-08-01 06:43:47 51°13.637 2°56.017 -999 282 14.5 101550 47
2011-08-01 06:43:52 51°13.637 2°56.017 -999 337 14.5 101550 47
2011-08-01 06:43:57 51°13.637 2°56.017 -999 282 14.5 101550 47
2011-08-01 06:44:02 51°13.637 2°56.017 -999 337 14.5 101550 47
2011-08-01 06:44:07 51°13.637 2°56.017 -999 282 14.5 101550 47
2011-08-01 06:44:12 51°13.637 2°56.017 -999 337 14.5 101550 47
2011-08-01 06:44:16 51°13.637 2°56.017 -999 282 14.5 101550 47
2011-08-01 06:44:22 51°13.637 2°56.017 -999 340 14.5 101550 47
2011-08-01 06:44:27 51°13.636 2°56.017 -999 282 14.5 101550 47
2011-08-01 06:44:32 51°13.636 2°56.017 -999 338 14.5 101550 47
2011-08-01 06:44:36 51°13.636 2°56.017 -999 327 14.5 101550 47
2011-08-01 06:44:42 51°13.636 2°56.017 -999 335 14.5 101550 47
2011-08-01 06:44:47 51°13.636 2°56.017 -999 282 14.5 101550 45
2011-08-01 06:44:52 51°13.636 2°56.017 -999 342 14.5 101550 45
2011-08-01 06:44:57 51°13.637 2°56.017 -999 282 14.5 101550 47
2011-08-01 06:45:02 51°13.637 2°56.017 -999 338 14.5 101550 47
2011-08-01 06:45:07 51°13.637 2°56.017 -999 282 14.5 101550 47
2011-08-01 06:45:13 51°13.637 2°56.017 -999 333 14.5 101550 47
2011-08-01 06:45:17 51°13.637 2°56.017 -999 281 14.5 101550 47
2011-08-01 06:45:22 51°13.637 2°56.017 -999 331 14.5 101550 47
2011-08-01 06:45:27 51°13.637 2°56.017 -999 281 14.5 101550 46
2011-08-01 06:45:32 51°13.637 2°56.017 -999 325 14.5 101550 46
2011-08-01 06:45:37 51°13.637 2°56.017 -999 282 14.5 101550 47
2011-08-01 06:45:42 51°13.637 2°56.017 -999 345 14.5 101550 47
2011-08-01 06:45:47 51°13.637 2°56.017 -999 281 14.5 101550 47
2011-08-01 06:45:53 51°13.637 2°56.017 -999 336 14.5 101550 47
2011-08-01 06:45:57 51°13.637 2°56.017 -999 282 14.6 101550 47
2011-08-01 06:46:02 51°13.637 2°56.017 -999 338 14.6 101550 47
2011-08-01 06:46:07 51°13.637 2°56.017 -999 282 14.6 101550 47
2011-08-01 06:46:12 51°13.637 2°56.017 -999 334 14.6 101550 47
2011-08-01 06:46:17 51°13.637 2°56.017 -999 281 14.6 101550 47
2011-08-01 06:46:22 51°13.637 2°56.017 -999 333 14.6 101550 47
2011-08-01 06:46:27 51°13.637 2°56.017 -999 282 14.6 101550 47
2011-08-01 06:46:32 51°13.637 2°56.017 -999 330 14.6 101550 47
2011-08-01 06:46:37 51°13.637 2°56.017 -999 339 14.6 101550 47
2011-08-01 06:46:42 51°13.637 2°56.017 -999 336 14.6 101550 47
2011-08-01 06:46:47 51°13.637 2°56.017 -999 282 14.6 101550 47
2011-08-01 06:46:52 51°13.637 2°56.018 -999 328 14.6 101550 47
2011-08-01 06:46:57 51°13.637 2°56.018 -999 282 14.6 101550 46
2011-08-01 06:47:02 51°13.637 2°56.018 -999 338 14.6 101550 46
2011-08-01 06:47:07 51°13.637 2°56.018 -999 282 14.6 101550 46
2011-08-01 06:47:12 51°13.637 2°56.018 -999 336 14.6 101550 46
2011-08-01 06:47:17 51°13.637 2°56.018 -999 281 14.6 101550 46
2011-08-01 06:47:22 51°13.637 2°56.018 -999 339 14.6 101550 46
2011-08-01 06:47:26 51°13.637 2°56.018 -999 282 14.6 101550 45
2011-08-01 06:47:32 51°13.637 2°56.018 -999 331 14.6 101550 45
2011-08-01 06:47:37 51°13.637 2°56.018 -999 329 14.6 101550 46
2011-08-01 06:47:42 51°13.637 2°56.018 -999 336 14.6 101550 46
2011-08-01 06:47:47 51°13.637 2°56.018 -999 282 14.6 101550 47
2011-08-01 06:47:51 51°13.637 2°56.018 -999 331 14.6 101550 47
2011-08-01 06:47:57 51°13.637 2°56.018 -999 281 14.6 101550 45
2011-08-01 06:48:02 51°13.637 2°56.018 -999 336 14.6 101550 45
2011-08-01 06:48:07 51°13.637 2°56.018 -999 281 14.6 101550 47
2011-08-01 06:48:12 51°13.637 2°56.018 -999 328 14.6 101550 47
2011-08-01 06:48:17 51°13.637 2°56.018 -999 327 14.6 101550 47
2011-08-01 06:48:22 51°13.637 2°56.018 -999 334 14.6 101550 47
2011-08-01 06:48:27 51°13.637 2°56.018 -999 281 14.6 101550 47
2011-08-01 06:48:32 51°13.637 2°56.018 -999 335 14.6 101550 47
2011-08-01 06:48:37 51°13.637 2°56.018 -999 337 14.6 101550 47
2011-08-01 06:48:42 51°13.637 2°56.018 -999 335 14.6 101550 47
2011-08-01 06:48:47 51°13.637 2°56.018 -999 281 14.7 101550 47
2011-08-01 06:48:52 51°13.637 2°56.018 -999 334 14.7 101550 47
2011-08-01 06:48:56 51°13.637 2°56.018 -999 282 14.6 101550 46
2011-08-01 06:49:02 51°13.637 2°56.018 -999 327 14.6 101550 46
2011-08-01 06:49:07 51°13.637 2°56.018 -999 281 14.6 101550 46
2011-08-01 06:49:12 51°13.637 2°56.018 -999 326 14.6 101550 46
2011-08-01 06:49:17 51°13.637 2°56.018 -999 281 14.6 101550 46
2011-08-01 06:49:22 51°13.637 2°56.018 -999 330 14.6 101550 46
2011-08-01 06:49:28 51°13.637 2°56.018 -999 281 14.6 101550 46
2011-08-01 06:49:32 51°13.637 2°56.019 -999 330 14.6 101550 46
2011-08-01 06:49:37 51°13.637 2°56.019 -999 329 14.6 101550 46
2011-08-01 06:49:42 51°13.637 2°56.019 -999 336 14.6 101550 46
2011-08-01 06:49:47 51°13.637 2°56.019 -999 281 14.6 101550 47
2011-08-01 06:49:52 51°13.637 2°56.019 -999 337 14.6 101550 47
2011-08-01 06:49:57 51°13.637 2°56.019 -999 282 14.6 101550 46
2011-08-01 06:50:02 51°13.637 2°56.019 -999 337 14.6 101550 46
2011-08-01 06:50:07 51°13.637 2°56.019 -999 282 14.6 101550 45
2011-08-01 06:50:12 51°13.637 2°56.019 -999 339 14.6 101550 45
2011-08-01 06:50:17 51°13.637 2°56.019 -999 282 14.6 101550 46
2011-08-01 06:50:22 51°13.637 2°56.019 -999 334 14.6 101550 46
2011-08-01 06:50:27 51°13.637 2°56.019 -999 282 14.6 101550 46
2011-08-01 06:50:32 51°13.637 2°56.019 -999 336 14.6 101550 46
2011-08-01 06:50:36 51°13.637 2°56.019 -999 336 14.6 101550 45
2011-08-01 06:50:42 51°13.637 2°56.019 -999 333 14.6 101550 45
2011-08-01 06:50:47 51°13.637 2°56.019 -999 281 14.6 101550 46
2011-08-01 06:50:52 51°13.637 2°56.019 -999 337 14.6 101550 46
2011-08-01 06:50:56 51°13.637 2°56.018 -999 282 14.6 101550 46
2011-08-01 06:51:02 51°13.637 2°56.018 -999 339 14.6 101550 46
2011-08-01 06:51:07 51°13.637 2°56.018 -999 282 14.6 101550 46
2011-08-01 06:51:12 51°13.637 2°56.018 -999 338 14.6 101550 46
2011-08-01 06:51:16 51°13.637 2°56.018 -999 282 14.6 101550 46
2011-08-01 06:51:22 51°13.637 2°56.018 -999 336 14.6 101550 46
2011-08-01 06:51:27 51°13.637 2°56.018 -999 282 14.6 101550 46
2011-08-01 06:51:32 51°13.637 2°56.018 -999 339 14.6 101550 46
2011-08-01 06:51:36 51°13.637 2°56.018 -999 340 14.6 101550 46
2011-08-01 06:51:42 51°13.637 2°56.018 -999 338 14.6 101550 46
2011-08-01 06:51:47 51°13.637 2°56.018 -999 337 14.6 101550 47
2011-08-01 06:51:52 51°13.637 2°56.018 -999 341 14.6 101550 47
2011-08-01 06:51:57 51°13.637 2°56.018 -999 281 14.6 101550 47
2011-08-01 06:52:02 51°13.637 2°56.018 -999 339 14.6 101550 47
2011-08-01 06:52:07 51°13.637 2°56.018 -999 282 14.7 101550 47
2011-08-01 06:52:12 51°13.637 2°56.018 -999 326 14.7 101550 47
2011-08-01 06:52:17 51°13.637 2°56.018 -999 281 14.7 101550 47
2011-08-01 06:52:21 51°13.637 2°56.018 -999 338 14.7 101550 47
2011-08-01 06:52:27 51°13.637 2°56.018 -999 282 14.7 101550 47
2011-08-01 06:52:32 51°13.637 2°56.018 -999 340 14.7 101550 47
2011-08-01 06:52:37 51°13.637 2°56.018 -999 337 14.7 101550 47
2011-08-01 06:52:42 51°13.637 2°56.018 -999 340 14.7 101550 47
2011-08-01 06:52:47 51°13.637 2°56.018 -999 282 14.7 101550 47
2011-08-01 06:52:52 51°13.637 2°56.018 -999 331 14.7 101550 47
2011-08-01 06:52:57 51°13.637 2°56.018 -999 336 14.7 101550 46
2011-08-01 06:53:02 51°13.637 2°56.018 -999 332 14.7 101550 46
2011-08-01 06:53:07 51°13.637 2°56.018 -999 282 14.7 101550 46
2011-08-01 06:53:12 51°13.637 2°56.018 -999 329 14.7 101550 46
2011-08-01 06:53:17 51°13.637 2°56.018 -999 281 14.7 101550 45
2011-08-01 06:53:21 51°13.637 2°56.018 -999 342 14.7 101550 45
2011-08-01 06:53:27 51°13.637 2°56.018 -999 282 14.7 101550 47
2011-08-01 06:53:33 51°13.637 2°56.018 -999 342 14.7 101550 47
2011-08-01 06:53:38 51°13.637 2°56.018 -999 338 14.7 101550 47
2011-08-01 06:53:42 51°13.637 2°56.018 -999 334 14.7 101550 47
2011-08-01 06:53:47 51°13.637 2°56.018 -999 281 14.7 101550 47
2011-08-01 06:53:52 51°13.637 2°56.018 -999 338 14.7 101550 47
2011-08-01 06:53:57 51°13.637 2°56.018 -999 281 14.7 101550 46
2011-08-01 06:54:02 51°13.637 2°56.018 -999 340 14.7 101550 46
2011-08-01 06:54:07 51°13.637 2°56.018 -999 282 14.7 101550 46
2011-08-01 06:54:12 51°13.637 2°56.018 -999 340 14.7 101550 46
2011-08-01 06:54:17 51°13.637 2°56.018 -999 281 14.7 101550 47
2011-08-01 06:54:22 51°13.637 2°56.018 -999 344 14.7 101550 47
2011-08-01 06:54:26 51°13.637 2°56.018 -999 282 14.7 101550 46
2011-08-01 06:54:32 51°13.637 2°56.018 -999 341 14.7 101550 46
2011-08-01 06:54:37 51°13.637 2°56.018 -999 341 14.7 101550 47
2011-08-01 06:54:42 51°13.637 2°56.018 -999 340 14.7 101550 47
2011-08-01 06:54:46 51°13.637 2°56.018 -999 282 14.7 101550 46
2011-08-01 06:54:52 51°13.637 2°56.018 -999 340 14.7 101550 46
2011-08-01 06:54:57 51°13.637 2°56.018 -999 281 14.7 101550 46
2011-08-01 06:55:02 51°13.637 2°56.018 -999 339 14.7 101550 46
2011-08-01 06:55:07 51°13.637 2°56.017 -999 282 14.7 101550 47
2011-08-01 06:55:11 51°13.637 2°56.017 -999 340 14.7 101550 47
2011-08-01 06:55:17 51°13.637 2°56.017 -999 341 14.8 101550 46
2011-08-01 06:55:22 51°13.636 2°56.017 -999 340 14.8 101550 46
2011-08-01 06:55:27 51°13.636 2°56.017 -999 282 14.8 101550 46
2011-08-01 06:55:31 51°13.636 2°56.017 -999 339 14.8 101550 46
2011-08-01 06:55:37 51°13.636 2°56.017 -999 341 14.8 101550 46
2011-08-01 06:55:43 51°13.636 2°56.017 -999 342 14.8 101550 46
2011-08-01 06:55:47 51°13.636 2°56.017 -999 282 14.8 101550 46
2011-08-01 06:55:52 51°13.636 2°56.017 -999 341 14.8 101550 46
2011-08-01 06:55:57 51°13.636 2°56.017 -999 281 14.8 101550 45
2011-08-01 06:56:02 51°13.636 2°56.017 -999 344 14.8 101550 45
2011-08-01 06:56:07 51°13.636 2°56.016 -999 282 14.7 101550 46
2011-08-01 06:56:12 51°13.636 2°56.016 -999 345 14.7 101550 46
2011-08-01 06:56:16 51°13.636 2°56.016 -999 282 14.7 101550 46
2011-08-01 06:56:22 51°13.636 2°56.016 -999 340 14.7 101550 46
2011-08-01 06:56:27 51°13.636 2°56.016 -999 342 14.7 101550 46
2011-08-01 06:56:32 51°13.636 2°56.016 -999 337 14.7 101550 46
2011-08-01 06:56:37 51°13.636 2°56.016 -999 340 14.7 101550 46
2011-08-01 06:56:42 51°13.636 2°56.016 -999 337 14.7 101550 46
2011-08-01 06:56:47 51°13.636 2°56.017 -999 282 14.7 101550 46
2011-08-01 06:56:52 51°13.636 2°56.016 -999 343 14.7 101550 46
2011-08-01 06:56:57 51°13.636 2°56.016 -999 281 14.7 101550 46
2011-08-01 06:57:02 51°13.636 2°56.016 -999 342 14.7 101550 46
2011-08-01 06:57:07 51°13.636 2°56.016 -999 281 14.7 101550 46
2011-08-01 06:57:12 51°13.636 2°56.016 -999 345 14.7 101550 46
2011-08-01 06:57:17 51°13.636 2°56.016 -999 282 14.7 101550 46
2011-08-01 06:57:22 51°13.636 2°56.016 -999 348 14.7 101550 46
2011-08-01 06:57:27 51°13.636 2°56.016 -999 282 14.7 101550 46
2011-08-01 06:57:32 51°13.636 2°56.016 -999 346 14.7 101550 46
2011-08-01 06:57:36 51°13.637 2°56.016 -999 340 14.7 101550 46
2011-08-01 06:57:42 51°13.637 2°56.016 -999 350 14.7 101550 46
2011-08-01 06:57:47 51°13.637 2°56.016 -999 282 14.7 101550 46
2011-08-01 06:57:52 51°13.637 2°56.016 -999 343 14.7 101550 46
2011-08-01 06:57:56 51°13.637 2°56.016 -999 282 14.7 101550 46
2011-08-01 06:58:02 51°13.637 2°56.016 -999 338 14.7 101550 46
2011-08-01 06:58:07 51°13.637 2°56.016 -999 282 14.7 101550 47
2011-08-01 06:58:12 51°13.637 2°56.016 -999 341 14.7 101550 47
2011-08-01 06:58:16 51°13.637 2°56.016 -999 282 14.7 101550 46
2011-08-01 06:58:21 51°13.637 2°56.016 -999 339 14.7 101550 46
2011-08-01 06:58:26 51°13.637 2°56.016 -999 281 14.7 101550 47
2011-08-01 06:58:33 51°13.637 2°56.016 -999 336 14.7 101550 47
2011-08-01 06:58:37 51°13.637 2°56.016 -999 338 14.7 101550 45
2011-08-01 06:58:42 51°13.637 2°56.016 -999 336 14.7 101550 45
2011-08-01 06:58:47 51°13.637 2°56.016 -999 282 14.7 101550 47
2011-08-01 06:58:53 51°13.637 2°56.016 -999 336 14.7 101550 47
2011-08-01 06:58:57 51°13.637 2°56.016 -999 281 14.8 101550 47
2011-08-01 06:59:02 51°13.637 2°56.016 -999 318 14.8 101550 47
2011-08-01 06:59:07 51°13.637 2°56.016 -999 282 14.8 101550 47
2011-08-01 06:59:12 51°13.637 2°56.016 -999 339 14.8 101550 47
2011-08-01 06:59:17 51°13.637 2°56.016 -999 282 14.8 101550 47
2011-08-01 06:59:21 51°13.637 2°56.016 -999 336 14.8 101550 47
2011-08-01 06:59:27 51°13.637 2°56.016 -999 281 14.9 101550 47
2011-08-01 06:59:32 51°13.637 2°56.016 -999 341 14.9 101550 47
2011-08-01 06:59:37 51°13.637 2°56.016 -999 338 14.9 101550 47
2011-08-01 06:59:42 51°13.637 2°56.016 -999 340 14.9 101550 47
2011-08-01 06:59:47 51°13.637 2°56.017 -999 282 14.9 101550 47
2011-08-01 06:59:52 51°13.637 2°56.017 -999 335 14.9 101550 47
2011-08-01 06:59:57 51°13.637 2°56.017 -999 282 14.9 101550 47
2011-08-01 07:00:02 51°13.637 2°56.017 -999 337 14.9 101550 47
2011-08-01 07:00:07 51°13.637 2°56.017 -999 282 14.9 101550 47
2011-08-01 07:00:12 51°13.637 2°56.017 -999 340 14.9 101550 47
2011-08-01 07:00:17 51°13.637 2°56.017 -999 338 14.9 101550 47
2011-08-01 07:00:21 51°13.637 2°56.017 -999 344 14.9 101550 47
2011-08-01 07:00:26 51°13.637 2°56.017 -999 281 14.9 101550 47
2011-08-01 07:00:32 51°13.637 2°56.017 -999 347 14.9 101550 47
2011-08-01 07:00:37 51°13.637 2°56.017 -999 343 14.9 101550 46
2011-08-01 07:00:42 51°13.637 2°56.017 -999 339 14.9 101550 46
2011-08-01 07:00:47 51°13.637 2°56.017 -999 282 14.9 101550 46
2011-08-01 07:00:52 51°13.637 2°56.017 -999 336 14.9 101550 46
2011-08-01 07:00:57 51°13.637 2°56.017 -999 281 14.9 101550 46
2011-08-01 07:01:02 51°13.637 2°56.017 -999 338 14.9 101550 46
2011-08-01 07:01:07 51°13.637 2°56.017 -999 281 14.9 101550 46
2011-08-01 07:01:12 51°13.637 2°56.017 -999 339 14.9 101550 46
2011-08-01 07:01:17 51°13.637 2°56.017 -999 282 14.9 101550 45
2011-08-01 07:01:22 51°13.637 2°56.017 -999 340 14.9 101550 45
2011-08-01 07:01:27 51°13.637 2°56.017 -999 282 14.9 101550 46
2011-08-01 07:01:32 51°13.637 2°56.017 -999 339 14.9 101550 46
2011-08-01 07:01:37 51°13.637 2°56.017 -999 336 14.9 101550 46
2011-08-01 07:01:42 51°13.637 2°56.017 -999 340 14.9 101550 46
2011-08-01 07:01:46 51°13.637 2°56.017 -999 281 14.9 101550 46
2011-08-01 07:01:52 51°13.636 2°56.017 -999 340 14.9 101550 46
2011-08-01 07:01:57 51°13.636 2°56.017 -999 341 15 101550 46
2011-08-01 07:02:02 51°13.636 2°56.017 -999 347 15 101550 46
2011-08-01 07:02:06 51°13.636 2°56.017 -999 282 14.9 101550 46
2011-08-01 07:02:12 51°13.637 2°56.017 -999 343 14.9 101550 46
2011-08-01 07:02:17 51°13.637 2°56.017 -999 349 15 101550 46
2011-08-01 07:02:22 51°13.637 2°56.017 -999 345 15 101550 46
2011-08-01 07:02:26 51°13.637 2°56.017 -999 282 14.9 101550 46
2011-08-01 07:02:33 51°13.637 2°56.017 -999 332 14.9 101550 46
2011-08-01 07:02:38 51°13.637 2°56.018 -999 340 15 101550 46
2011-08-01 07:02:42 51°13.637 2°56.018 -999 334 15 101550 46
2011-08-01 07:02:47 51°13.637 2°56.018 -999 281 15 101550 46
2011-08-01 07:02:52 51°13.637 2°56.018 -999 346 15 101550 46
2011-08-01 07:02:57 51°13.637 2°56.018 -999 349 15 101550 46
2011-08-01 07:03:02 51°13.637 2°56.018 -999 346 15 101550 46
2011-08-01 07:03:07 51°13.637 2°56.018 -999 343 15 101550 46
2011-08-01 07:03:11 51°13.637 2°56.018 -999 340 15 101550 46
2011-08-01 07:03:17 51°13.637 2°56.018 -999 281 15 101550 46
2011-08-01 07:03:22 51°13.637 2°56.018 -999 334 15 101550 46
2011-08-01 07:03:27 51°13.637 2°56.018 -999 281 15 101550 46
2011-08-01 07:03:32 51°13.637 2°56.018 -999 337 15 101550 46
2011-08-01 07:03:36 51°13.637 2°56.018 -999 339 15 101550 46
2011-08-01 07:03:42 51°13.637 2°56.018 -999 346 15 101550 46
2011-08-01 07:03:47 51°13.637 2°56.018 -999 281 15 101550 46
2011-08-01 07:03:52 51°13.637 2°56.018 -999 342 15 101550 46
2011-08-01 07:03:56 51°13.637 2°56.018 -999 282 15 101550 45
2011-08-01 07:04:02 51°13.637 2°56.018 -999 344 15 101550 45
2011-08-01 07:04:07 51°13.637 2°56.018 -999 282 15 101550 46
2011-08-01 07:04:12 51°13.637 2°56.018 -999 339 15 101550 46
2011-08-01 07:04:17 51°13.637 2°56.017 -999 281 15 101550 46
2011-08-01 07:04:22 51°13.638 2°56.017 -999 341 15 101550 46
2011-08-01 07:04:27 51°13.638 2°56.017 -999 281 15 101550 46
2011-08-01 07:04:32 51°13.638 2°56.017 -999 343 15 101550 46
2011-08-01 07:04:37 51°13.638 2°56.017 -999 348 15 101550 46
2011-08-01 07:04:41 51°13.638 2°56.017 -999 348 15 101550 46
2011-08-01 07:04:47 51°13.638 2°56.017 -999 282 15 101550 46
2011-08-01 07:04:52 51°13.638 2°56.017 -999 343 15 101550 46
2011-08-01 07:04:58 51°13.638 2°56.017 -999 282 15 101550 46
2011-08-01 07:05:02 51°13.638 2°56.017 -999 351 15 101550 46
2011-08-01 07:05:07 51°13.638 2°56.017 -999 349 15 101550 46
2011-08-01 07:05:12 51°13.638 2°56.017 -999 342 15 101550 46
2011-08-01 07:05:17 51°13.638 2°56.017 -999 282 15 101550 46
2011-08-01 07:05:22 51°13.638 2°56.018 -999 338 15 101550 46
2011-08-01 07:05:27 51°13.638 2°56.018 -999 282 15 101550 46
2011-08-01 07:05:32 51°13.638 2°56.018 -999 341 15 101550 46
2011-08-01 07:05:37 51°13.638 2°56.018 -999 339 15 101550 46
2011-08-01 07:05:42 51°13.638 2°56.017 -999 333 15 101550 46
2011-08-01 07:05:47 51°13.638 2°56.017 -999 281 15 101550 46
2011-08-01 07:05:52 51°13.638 2°56.017 -999 342 15 101550 46
2011-08-01 07:05:58 51°13.638 2°56.017 -999 281 15 101550 46
2011-08-01 07:06:02 51°13.638 2°56.017 -999 339 15 101550 46
2011-08-01 07:06:07 51°13.638 2°56.017 -999 282 15 101550 46
2011-08-01 07:06:12 51°13.638 2°56.017 -999 338 15 101550 46
2011-08-01 07:06:17 51°13.638 2°56.017 -999 282 15.1 101550 46
2011-08-01 07:06:22 51°13.638 2°56.017 -999 346 15.1 101550 46
2011-08-01 07:06:27 51°13.638 2°56.017 -999 282 15.1 101550 47
2011-08-01 07:06:32 51°13.638 2°56.017 -999 343 15.1 101550 47
2011-08-01 07:06:37 51°13.638 2°56.018 -999 345 15.1 101550 45
2011-08-01 07:06:42 51°13.638 2°56.017 -999 347 15.1 101550 45
2011-08-01 07:06:46 51°13.638 2°56.017 -999 281 15.1 101550 47
2011-08-01 07:06:52 51°13.638 2°56.017 -999 342 15.1 101550 47
2011-08-01 07:06:57 51°13.638 2°56.017 -999 282 15.1 101550 46
2011-08-01 07:07:02 51°13.638 2°56.017 -999 348 15.1 101550 46
2011-08-01 07:07:07 51°13.638 2°56.017 -999 282 15.1 101550 46
2011-08-01 07:07:12 51°13.638 2°56.017 -999 343 15.1 101550 46
2011-08-01 07:07:17 51°13.638 2°56.017 -999 282 15.1 101550 46
2011-08-01 07:07:22 51°13.637 2°56.017 -999 338 15.1 101550 46
2011-08-01 07:07:27 51°13.637 2°56.017 -999 281 15.1 101550 46
2011-08-01 07:07:32 51°13.637 2°56.017 -999 335 15.1 101550 46
2011-08-01 07:07:37 51°13.637 2°56.017 -999 335 15.1 101550 46
2011-08-01 07:07:42 51°13.637 2°56.017 -999 339 15.1 101550 46
2011-08-01 07:07:46 51°13.637 2°56.017 -999 282 15.1 101550 46
2011-08-01 07:07:52 51°13.637 2°56.017 -999 346 15.1 101550 46
2011-08-01 07:07:57 51°13.637 2°56.017 -999 282 15.1 101560 46
2011-08-01 07:08:02 51°13.637 2°56.017 -999 349 15.1 101560 46
2011-08-01 07:08:06 51°13.637 2°56.017 -999 282 15.1 101550 46
2011-08-01 07:08:12 51°13.637 2°56.017 -999 343 15.1 101550 46
2011-08-01 07:08:17 51°13.637 2°56.017 -999 281 15.1 101550 46
2011-08-01 07:08:22 51°13.637 2°56.017 -999 339 15.1 101550 46
2011-08-01 07:08:26 51°13.637 2°56.017 -999 281 15.1 101550 46
2011-08-01 07:08:32 51°13.637 2°56.017 -999 344 15.1 101550 46
2011-08-01 07:08:37 51°13.637 2°56.017 -999 347 15.1 101550 46
2011-08-01 07:08:42 51°13.637 2°56.017 -999 341 15.1 101550 46
2011-08-01 07:08:47 51°13.637 2°56.017 -999 282 15.1 101550 46
2011-08-01 07:08:52 51°13.637 2°56.017 -999 344 15.1 101550 46
2011-08-01 07:08:57 51°13.637 2°56.017 -999 282 15.1 101550 46
2011-08-01 07:09:02 51°13.637 2°56.017 -999 346 15.1 101550 46
2011-08-01 07:09:06 51°13.637 2°56.018 -999 281 15.1 101550 46
2011-08-01 07:09:12 51°13.637 2°56.018 -999 338 15.1 101550 46
2011-08-01 07:09:17 51°13.637 2°56.018 -999 282 15.1 101550 45
2011-08-01 07:09:22 51°13.637 2°56.018 -999 340 15.1 101550 45
2011-08-01 07:09:27 51°13.637 2°56.018 -999 281 15.1 101560 46
2011-08-01 07:09:32 51°13.637 2°56.018 -999 340 15.1 101560 46
2011-08-01 07:09:37 51°13.637 2°56.018 -999 340 15.1 101550 46
2011-08-01 07:09:42 51°13.637 2°56.018 -999 337 15.1 101550 46
2011-08-01 07:09:47 51°13.637 2°56.018 -999 282 15.1 101550 47
2011-08-01 07:09:52 51°13.637 2°56.018 -999 346 15.1 101550 47
2011-08-01 07:09:57 51°13.637 2°56.018 -999 281 15.2 101550 47
2011-08-01 07:10:02 51°13.637 2°56.018 -999 347 15.2 101550 47
2011-08-01 07:10:07 51°13.637 2°56.018 -999 281 15.2 101550 47
2011-08-01 07:10:12 51°13.637 2°56.018 -999 348 15.2 101550 47
2011-08-01 07:10:17 51°13.637 2°56.018 -999 281 15.2 101560 47
2011-08-01 07:10:22 51°13.637 2°56.018 -999 343 15.2 101560 47
2011-08-01 07:10:27 51°13.637 2°56.018 -999 281 15.2 101550 47
2011-08-01 07:10:32 51°13.637 2°56.018 -999 344 15.2 101550 47
2011-08-01 07:10:37 51°13.637 2°56.018 -999 335 15.2 101550 46
2011-08-01 07:10:43 51°13.637 2°56.018 -999 336 15.2 101550 46
2011-08-01 07:10:47 51°13.637 2°56.018 -999 281 15.2 101560 46
2011-08-01 07:10:52 51°13.637 2°56.018 -999 340 15.2 101560 46
2011-08-01 07:10:57 51°13.637 2°56.018 -999 281 15.2 101550 46
2011-08-01 07:11:03 51°13.637 2°56.018 -999 338 15.2 101550 46
2011-08-01 07:11:07 51°13.637 2°56.018 -999 281 15.2 101550 47
2011-08-01 07:11:12 51°13.637 2°56.018 -999 337 15.2 101550 47
2011-08-01 07:11:17 51°13.637 2°56.018 -999 282 15.2 101550 47
2011-08-01 07:11:22 51°13.637 2°56.018 -999 336 15.2 101550 47
2011-08-01 07:11:27 51°13.637 2°56.018 -999 282 15.2 101550 47
2011-08-01 07:11:32 51°13.638 2°56.018 -999 337 15.2 101550 47
2011-08-01 07:11:37 51°13.637 2°56.018 -999 336 15.3 101550 47
2011-08-01 07:11:42 51°13.637 2°56.018 -999 339 15.3 101550 47
2011-08-01 07:11:47 51°13.637 2°56.018 -999 281 15.3 101550 47
2011-08-01 07:11:52 51°13.637 2°56.018 -999 335 15.3 101550 47
2011-08-01 07:11:57 51°13.637 2°56.018 -999 282 15.3 101550 45
2011-08-01 07:12:02 51°13.637 2°56.018 -999 343 15.3 101550 45
2011-08-01 07:12:07 51°13.638 2°56.018 -999 282 15.3 101550 46
2011-08-01 07:12:12 51°13.638 2°56.018 -999 342 15.3 101550 46
2011-08-01 07:12:17 51°13.638 2°56.018 -999 282 15.3 101550 47
2011-08-01 07:12:22 51°13.638 2°56.018 -999 337 15.3 101550 47
2011-08-01 07:12:27 51°13.638 2°56.018 -999 282 15.3 101550 46
2011-08-01 07:12:32 51°13.638 2°56.018 -999 344 15.3 101550 46
2011-08-01 07:12:37 51°13.638 2°56.018 -999 346 15.3 101550 46
2011-08-01 07:12:42 51°13.638 2°56.018 -999 338 15.3 101550 46
2011-08-01 07:12:47 51°13.638 2°56.018 -999 282 15.3 101550 47
2011-08-01 07:12:51 51°13.638 2°56.018 -999 339 15.3 101550 47
2011-08-01 07:12:57 51°13.638 2°56.018 -999 342 15.3 101550 46
2011-08-01 07:13:02 51°13.638 2°56.019 -999 342 15.3 101550 46
2011-08-01 07:13:07 51°13.638 2°56.019 -999 281 15.4 101550 46
2011-08-01 07:13:12 51°13.638 2°56.019 -999 336 15.4 101550 46
2011-08-01 07:13:17 51°13.638 2°56.019 -999 282 15.4 101550 46
2011-08-01 07:13:23 51°13.638 2°56.019 -999 345 15.4 101550 46
2011-08-01 07:13:29 51°13.638 2°56.019 -999 282 15.4 101550 46
2011-08-01 07:13:35 51°13.638 2°56.019 -999 339 15.4 101550 46
2011-08-01 07:13:39 51°13.638 2°56.019 -999 340 15.4 101550 46
2011-08-01 07:13:44 51°13.638 2°56.019 -999 338 15.4 101550 46
2011-08-01 07:13:49 51°13.638 2°56.019 -999 281 15.4 101550 46
2011-08-01 07:13:54 51°13.638 2°56.019 -999 340 15.4 101550 46
2011-08-01 07:13:59 51°13.638 2°56.019 -999 282 15.4 101550 46
2011-08-01 07:14:04 51°13.638 2°56.019 -999 340 15.4 101550 46
2011-08-01 07:14:09 51°13.638 2°56.019 -999 282 15.3 101550 45
2011-08-01 07:14:14 51°13.638 2°56.019 -999 339 15.3 101550 45
2011-08-01 07:14:19 51°13.638 2°56.019 -999 282 15.3 101550 45
2011-08-01 07:14:23 51°13.638 2°56.019 -999 339 15.3 101550 45
2011-08-01 07:14:28 51°13.638 2°56.019 -999 282 15.4 101550 45
2011-08-01 07:14:33 51°13.638 2°56.019 -999 340 15.4 101550 45
2011-08-01 07:14:38 51°13.638 2°56.019 -999 337 15.3 101550 44
2011-08-01 07:14:43 51°13.638 2°56.019 -999 340 15.3 101550 44
2011-08-01 07:14:47 51°13.638 2°56.019 -999 281 15.3 101550 45
2011-08-01 07:14:52 51°13.638 2°56.019 -999 337 15.3 101550 45
2011-08-01 07:14:57 51°13.638 2°56.019 -999 281 15.3 101550 45
2011-08-01 07:15:02 51°13.638 2°56.019 -999 340 15.3 101550 45
2011-08-01 07:15:07 51°13.638 2°56.019 -999 282 15.4 101550 45
2011-08-01 07:15:12 51°13.638 2°56.019 -999 338 15.4 101550 45
2011-08-01 07:15:17 51°13.638 2°56.019 -999 282 15.3 101550 45
2011-08-01 07:15:22 51°13.638 2°56.019 -999 335 15.3 101550 45
2011-08-01 07:15:27 51°13.638 2°56.019 -999 281 15.4 101550 45
2011-08-01 07:15:32 51°13.638 2°56.019 -999 336 15.4 101550 45
2011-08-01 07:15:37 51°13.638 2°56.019 -999 336 15.4 101550 46
2011-08-01 07:15:42 51°13.638 2°56.019 -999 334 15.4 101550 46
2011-08-01 07:15:47 51°13.638 2°56.019 -999 282 15.4 101550 45
2011-08-01 07:15:52 51°13.638 2°56.019 -999 339 15.4 101550 45
2011-08-01 07:15:57 51°13.638 2°56.019 -999 281 15.4 101550 45
2011-08-01 07:16:02 51°13.638 2°56.019 -999 335 15.4 101550 45
2011-08-01 07:16:07 51°13.638 2°56.019 -999 281 15.4 101550 45
2011-08-01 07:16:12 51°13.638 2°56.019 -999 342 15.4 101550 45
2011-08-01 07:16:17 51°13.638 2°56.019 -999 282 15.4 101550 45
2011-08-01 07:16:22 51°13.638 2°56.019 -999 338 15.4 101550 45
2011-08-01 07:16:27 51°13.638 2°56.019 -999 282 15.4 101550 45
2011-08-01 07:16:32 51°13.638 2°56.019 -999 344 15.4 101550 45
2011-08-01 07:16:37 51°13.637 2°56.019 -999 341 15.4 101550 45
2011-08-01 07:16:42 51°13.637 2°56.019 -999 336 15.4 101550 45
2011-08-01 07:16:47 51°13.637 2°56.019 -999 281 15.4 101550 45
2011-08-01 07:16:52 51°13.637 2°56.019 -999 329 15.4 101550 45
2011-08-01 07:16:57 51°13.637 2°56.019 -999 281 15.5 101550 45
2011-08-01 07:17:02 51°13.637 2°56.019 -999 342 15.5 101550 45
2011-08-01 07:17:07 51°13.637 2°56.019 -999 282 15.5 101550 45
2011-08-01 07:17:12 51°13.637 2°56.019 -999 347 15.5 101550 45
2011-08-01 07:17:17 51°13.637 2°56.019 -999 351 15.5 101550 44
2011-08-01 07:17:22 51°13.637 2°56.019 -999 348 15.5 101550 44
2011-08-01 07:17:27 51°13.637 2°56.019 -999 281 15.5 101550 45
2011-08-01 07:17:32 51°13.637 2°56.019 -999 336 15.5 101550 45
2011-08-01 07:17:37 51°13.637 2°56.019 -999 337 15.5 101550 45
2011-08-01 07:17:42 51°13.637 2°56.019 -999 334 15.5 101550 45
2011-08-01 07:17:47 51°13.637 2°56.019 -999 281 15.5 101550 45
2011-08-01 07:17:52 51°13.637 2°56.019 -999 339 15.5 101550 45
2011-08-01 07:17:57 51°13.637 2°56.019 -999 281 15.5 101550 45
2011-08-01 07:18:02 51°13.637 2°56.019 -999 338 15.5 101550 45
2011-08-01 07:18:07 51°13.637 2°56.019 -999 281 15.5 101550 46
2011-08-01 07:18:12 51°13.637 2°56.019 -999 348 15.5 101550 46
2011-08-01 07:18:17 51°13.637 2°56.019 -999 282 15.6 101550 46
2011-08-01 07:18:22 51°13.637 2°56.019 -999 338 15.6 101550 46
2011-08-01 07:18:27 51°13.637 2°56.019 -999 281 15.6 101550 45
2011-08-01 07:18:32 51°13.637 2°56.019 -999 342 15.6 101550 45
2011-08-01 07:18:37 51°13.637 2°56.019 -999 342 15.6 101550 46
2011-08-01 07:18:42 51°13.637 2°56.019 -999 340 15.6 101550 46
2011-08-01 07:18:47 51°13.637 2°56.019 -999 281 15.6 101550 46
2011-08-01 07:18:52 51°13.637 2°56.019 -999 339 15.6 101550 46
2011-08-01 07:18:57 51°13.637 2°56.019 -999 282 15.6 101550 46
2011-08-01 07:19:02 51°13.637 2°56.019 -999 343 15.6 101550 46
2011-08-01 07:19:07 51°13.637 2°56.019 -999 282 15.7 101550 46
2011-08-01 07:19:12 51°13.637 2°56.019 -999 339 15.7 101550 46
2011-08-01 07:19:17 51°13.637 2°56.019 -999 281 15.7 101550 46
2011-08-01 07:19:22 51°13.637 2°56.019 -999 342 15.7 101550 46
2011-08-01 07:19:27 51°13.637 2°56.019 -999 282 15.7 101550 45
2011-08-01 07:19:32 51°13.637 2°56.019 -999 340 15.7 101550 45
2011-08-01 07:19:37 51°13.637 2°56.019 -999 336 15.7 101550 46
2011-08-01 07:19:42 51°13.637 2°56.019 -999 338 15.7 101550 46
2011-08-01 07:19:47 51°13.637 2°56.019 -999 281 15.7 101550 45
2011-08-01 07:19:52 51°13.637 2°56.019 -999 327 15.7 101550 45
2011-08-01 07:19:57 51°13.637 2°56.019 -999 281 15.8 101550 44
2011-08-01 07:20:02 51°13.637 2°56.018 -999 338 15.8 101550 44
2011-08-01 07:20:07 51°13.637 2°56.018 -999 281 15.8 101550 45
2011-08-01 07:20:12 51°13.637 2°56.018 -999 337 15.8 101550 45
2011-08-01 07:20:17 51°13.637 2°56.018 -999 281 15.8 101550 45
2011-08-01 07:20:22 51°13.637 2°56.018 -999 334 15.8 101550 45
2011-08-01 07:20:27 51°13.637 2°56.018 -999 282 15.8 101550 45
2011-08-01 07:20:32 51°13.637 2°56.018 -999 337 15.8 101550 45
2011-08-01 07:20:37 51°13.637 2°56.018 -999 333 15.8 101550 45
2011-08-01 07:20:42 51°13.637 2°56.018 -999 347 15.8 101550 45
2011-08-01 07:20:47 51°13.637 2°56.018 -999 282 15.8 101550 45
2011-08-01 07:20:52 51°13.637 2°56.018 -999 347 15.8 101550 45
2011-08-01 07:20:57 51°13.637 2°56.018 -999 281 15.8 101550 45
2011-08-01 07:21:02 51°13.637 2°56.018 -999 338 15.8 101550 45
2011-08-01 07:21:07 51°13.637 2°56.018 -999 281 15.8 101550 45
2011-08-01 07:21:12 51°13.637 2°56.018 -999 335 15.8 101550 45
2011-08-01 07:21:17 51°13.637 2°56.018 -999 282 15.8 101550 45
2011-08-01 07:21:22 51°13.637 2°56.018 -999 335 15.8 101550 45
2011-08-01 07:21:27 51°13.637 2°56.018 -999 282 15.8 101550 45
2011-08-01 07:21:32 51°13.637 2°56.018 -999 328 15.8 101550 45
2011-08-01 07:21:37 51°13.637 2°56.018 -999 337 15.8 101550 45
2011-08-01 07:21:42 51°13.637 2°56.018 -999 338 15.8 101550 45
2011-08-01 07:21:47 51°13.637 2°56.017 -999 281 15.8 101550 45
2011-08-01 07:21:52 51°13.637 2°56.017 -999 340 15.8 101550 45
2011-08-01 07:21:56 51°13.637 2°56.017 -999 282 15.8 101550 45
2011-08-01 07:22:02 51°13.637 2°56.017 -999 331 15.8 101550 45
2011-08-01 07:22:07 51°13.637 2°56.017 -999 281 15.8 101550 45
2011-08-01 07:22:12 51°13.637 2°56.017 -999 340 15.8 101550 45
2011-08-01 07:22:17 51°13.637 2°56.017 -999 281 15.8 101550 45
2011-08-01 07:22:22 51°13.637 2°56.017 -999 347 15.8 101550 45
2011-08-01 07:22:27 51°13.637 2°56.017 -999 282 15.8 101550 45
2011-08-01 07:22:32 51°13.637 2°56.017 -999 336 15.8 101550 45
2011-08-01 07:22:37 51°13.637 2°56.017 -999 338 15.8 101550 44
2011-08-01 07:22:42 51°13.637 2°56.017 -999 340 15.8 101550 44
2011-08-01 07:22:47 51°13.637 2°56.017 -999 282 15.8 101550 45
2011-08-01 07:22:52 51°13.637 2°56.017 -999 337 15.8 101550 45
2011-08-01 07:22:57 51°13.637 2°56.017 -999 281 15.8 101550 45
2011-08-01 07:23:02 51°13.637 2°56.017 -999 329 15.8 101550 45
2011-08-01 07:23:07 51°13.637 2°56.017 -999 281 15.8 101550 45
2011-08-01 07:23:12 51°13.637 2°56.017 -999 327 15.8 101550 45
2011-08-01 07:23:17 51°13.637 2°56.017 -999 281 15.8 101550 45
2011-08-01 07:23:22 51°13.637 2°56.017 -999 341 15.8 101550 45
2011-08-01 07:23:27 51°13.637 2°56.017 -999 281 15.9 101550 45
2011-08-01 07:23:32 51°13.637 2°56.017 -999 336 15.9 101550 45
2011-08-01 07:23:37 51°13.637 2°56.017 -999 337 15.9 101550 45
2011-08-01 07:23:42 51°13.637 2°56.017 -999 328 15.9 101550 45
2011-08-01 07:23:47 51°13.638 2°56.017 -999 281 15.9 101550 45
2011-08-01 07:23:52 51°13.638 2°56.017 -999 339 15.9 101550 45
2011-08-01 07:23:57 51°13.638 2°56.017 -999 282 15.9 101550 45
2011-08-01 07:24:02 51°13.638 2°56.017 -999 339 15.9 101550 45
2011-08-01 07:24:07 51°13.638 2°56.017 -999 281 15.9 101550 45
2011-08-01 07:24:12 51°13.638 2°56.017 -999 35 15.9 101550 45
2011-08-01 07:24:17 51°13.638 2°56.017 -999 325 15.9 101550 45
2011-08-01 07:24:22 51°13.638 2°56.018 -999 329 15.9 101550 45
2011-08-01 07:24:27 51°13.638 2°56.018 -999 282 15.9 101550 45
2011-08-01 07:24:32 51°13.638 2°56.018 -999 337 15.9 101550 45
2011-08-01 07:24:37 51°13.637 2°56.018 -999 336 15.9 101550 45
2011-08-01 07:24:42 51°13.637 2°56.018 -999 340 15.9 101550 45
2011-08-01 07:24:47 51°13.637 2°56.018 -999 282 15.9 101550 45
2011-08-01 07:24:52 51°13.637 2°56.018 -999 341 15.9 101550 45
2011-08-01 07:24:57 51°13.637 2°56.018 -999 282 15.9 101550 45
2011-08-01 07:25:02 51°13.638 2°56.018 -999 337 15.9 101550 45
2011-08-01 07:25:07 51°13.638 2°56.018 -999 281 16 101550 45
2011-08-01 07:25:12 51°13.638 2°56.018 -999 338 16 101550 45
2011-08-01 07:25:17 51°13.638 2°56.018 -999 281 16 101550 44
2011-08-01 07:25:22 51°13.638 2°56.018 -999 331 16 101550 44
2011-08-01 07:25:27 51°13.638 2°56.018 -999 281 16 101550 45
2011-08-01 07:25:32 51°13.638 2°56.018 -999 339 16 101550 45
2011-08-01 07:25:37 51°13.638 2°56.018 -999 332 16 101550 45
2011-08-01 07:25:42 51°13.638 2°56.018 -999 340 16 101550 45
2011-08-01 07:25:47 51°13.637 2°56.018 -999 281 16 101550 45
2011-08-01 07:25:52 51°13.637 2°56.018 -999 335 16 101550 45
2011-08-01 07:25:57 51°13.637 2°56.018 -999 281 16 101550 45
2011-08-01 07:26:02 51°13.637 2°56.018 -999 338 16 101550 45
2011-08-01 07:26:07 51°13.637 2°56.019 -999 282 16 101550 45
2011-08-01 07:26:11 51°13.637 2°56.019 -999 327 16 101550 45
2011-08-01 07:26:17 51°13.637 2°56.019 -999 281 16 101550 45
2011-08-01 07:26:22 51°13.637 2°56.019 -999 337 16 101550 45
2011-08-01 07:26:27 51°13.637 2°56.019 -999 281 16 101550 45
2011-08-01 07:26:31 51°13.637 2°56.019 -999 330 16 101550 45
2011-08-01 07:26:37 51°13.637 2°56.019 -999 334 16 101540 45
2011-08-01 07:26:42 51°13.637 2°56.019 -999 331 16 101540 45
2011-08-01 07:26:47 51°13.637 2°56.019 -999 281 16.1 101540 45
2011-08-01 07:26:52 51°13.637 2°56.019 -999 340 16.1 101540 45
2011-08-01 07:26:57 51°13.637 2°56.019 -999 281 16.1 101540 45
2011-08-01 07:27:02 51°13.637 2°56.019 -999 332 16.1 101540 45
2011-08-01 07:27:07 51°13.637 2°56.019 -999 281 16.1 101540 45
2011-08-01 07:27:12 51°13.637 2°56.019 -999 329 16.1 101540 45
2011-08-01 07:27:17 51°13.637 2°56.019 -999 281 16.1 101540 45
2011-08-01 07:27:22 51°13.637 2°56.019 -999 339 16.1 101540 45
2011-08-01 07:27:27 51°13.637 2°56.019 -999 282 16.1 101550 45
2011-08-01 07:27:32 51°13.637 2°56.018 -999 335 16.1 101550 45
2011-08-01 07:27:37 51°13.638 2°56.019 -999 333 16.1 101550 45
2011-08-01 07:27:42 51°13.638 2°56.02 -999 325 16.1 101550 45
2011-08-01 07:27:47 51°13.638 2°56.02 -999 281 16.1 101550 45
2011-08-01 07:27:52 51°13.638 2°56.02 -999 335 16.1 101550 45
2011-08-01 07:27:57 51°13.638 2°56.02 -999 281 16.1 101540 43
2011-08-01 07:28:02 51°13.638 2°56.02 -999 336 16.1 101540 43
2011-08-01 07:28:07 51°13.637 2°56.018 -999 281 16.1 101540 45
2011-08-01 07:28:12 51°13.637 2°56.018 -999 339 16.1 101540 45
2011-08-01 07:28:17 51°13.636 2°56.018 -999 281 16.1 101550 45
2011-08-01 07:28:22 51°13.637 2°56.018 -999 334 16.1 101550 45
2011-08-01 07:28:27 51°13.636 2°56.018 -999 282 16.1 101540 45
2011-08-01 07:28:32 51°13.636 2°56.018 -999 327 16.1 101540 45
2011-08-01 07:28:37 51°13.636 2°56.018 -999 328 16.1 101550 45
2011-08-01 07:28:42 51°13.636 2°56.018 -999 331 16.1 101550 45
2011-08-01 07:28:47 51°13.636 2°56.018 -999 281 16.1 101550 45
2011-08-01 07:28:52 51°13.636 2°56.018 -999 338 16.1 101550 45
2011-08-01 07:28:57 51°13.636 2°56.018 -999 281 16.1 101540 45
2011-08-01 07:29:02 51°13.636 2°56.018 -999 345 16.1 101540 45
2011-08-01 07:29:07 51°13.636 2°56.018 -999 281 16.1 101550 45
2011-08-01 07:29:12 51°13.636 2°56.018 -999 335 16.1 101550 45
2011-08-01 07:29:16 51°13.636 2°56.018 -999 281 16.2 101550 45
2011-08-01 07:29:22 51°13.636 2°56.018 -999 343 16.2 101550 45
2011-08-01 07:29:27 51°13.636 2°56.018 -999 281 16.2 101550 45
2011-08-01 07:29:32 51°13.636 2°56.018 -999 341 16.2 101550 45
2011-08-01 07:29:37 51°13.636 2°56.018 -999 345 16.2 101550 45
2011-08-01 07:29:42 51°13.636 2°56.018 -999 337 16.2 101550 45
2011-08-01 07:29:47 51°13.636 2°56.017 -999 282 16.2 101540 45
2011-08-01 07:29:52 51°13.636 2°56.017 -999 326 16.2 101540 45
2011-08-01 07:29:57 51°13.636 2°56.017 -999 282 16.2 101550 45
2011-08-01 07:30:02 51°13.636 2°56.017 -999 331 16.2 101550 45
2011-08-01 07:30:07 51°13.636 2°56.017 -999 282 16.2 101540 45
2011-08-01 07:30:12 51°13.636 2°56.017 -999 342 16.2 101540 45
2011-08-01 07:30:17 51°13.636 2°56.017 -999 281 16.2 101540 45
2011-08-01 07:30:22 51°13.636 2°56.017 -999 342 16.2 101540 45
2011-08-01 07:30:27 51°13.636 2°56.017 -999 281 16.2 101550 45
2011-08-01 07:30:32 51°13.636 2°56.017 -999 337 16.2 101550 45
2011-08-01 07:30:37 51°13.635 2°56.017 -999 339 16.2 101550 43
2011-08-01 07:30:42 51°13.635 2°56.018 -999 340 16.2 101550 43
2011-08-01 07:30:47 51°13.636 2°56.018 -999 281 16.2 101550 45
2011-08-01 07:30:52 51°13.636 2°56.018 -999 338 16.2 101550 45
2011-08-01 07:30:56 51°13.636 2°56.018 -999 281 16.2 101540 45
2011-08-01 07:31:02 51°13.636 2°56.018 -999 339 16.2 101540 45
2011-08-01 07:31:07 51°13.635 2°56.018 -999 281 16.3 101550 45
2011-08-01 07:31:12 51°13.635 2°56.018 -999 337 16.3 101550 45
2011-08-01 07:31:17 51°13.635 2°56.018 -999 338 16.2 101540 45
2011-08-01 07:31:22 51°13.635 2°56.018 -999 342 16.2 101540 45
2011-08-01 07:31:27 51°13.635 2°56.018 -999 282 16.3 101540 44
2011-08-01 07:31:32 51°13.635 2°56.018 -999 343 16.3 101540 44
2011-08-01 07:31:37 51°13.635 2°56.018 -999 341 16.2 101540 44
2011-08-01 07:31:42 51°13.635 2°56.018 -999 331 16.2 101540 44
2011-08-01 07:31:47 51°13.635 2°56.018 -999 282 16.3 101550 44
2011-08-01 07:31:52 51°13.635 2°56.018 -999 325 16.3 101550 44
2011-08-01 07:31:57 51°13.635 2°56.018 -999 281 16.3 101550 45
2011-08-01 07:32:02 51°13.635 2°56.018 -999 323 16.3 101550 45
2011-08-01 07:32:07 51°13.635 2°56.018 -999 281 16.3 101550 45
2011-08-01 07:32:12 51°13.635 2°56.018 -999 332 16.3 101550 45
2011-08-01 07:32:17 51°13.635 2°56.018 -999 281 16.3 101550 45
2011-08-01 07:32:22 51°13.635 2°56.018 -999 332 16.3 101550 45
2011-08-01 07:32:27 51°13.635 2°56.018 -999 281 16.3 101550 45
2011-08-01 07:32:32 51°13.635 2°56.018 -999 334 16.3 101550 45
2011-08-01 07:32:37 51°13.635 2°56.018 -999 331 16.3 101550 45
2011-08-01 07:32:42 51°13.635 2°56.018 -999 338 16.3 101550 45
2011-08-01 07:32:47 51°13.635 2°56.018 -999 281 16.3 101550 44
2011-08-01 07:32:51 51°13.635 2°56.018 -999 339 16.3 101550 44
2011-08-01 07:32:57 51°13.635 2°56.018 -999 281 16.3 101550 44
2011-08-01 07:33:02 51°13.635 2°56.018 -999 340 16.3 101550 44
2011-08-01 07:33:07 51°13.635 2°56.018 -999 281 16.3 101550 44
2011-08-01 07:33:12 51°13.635 2°56.018 -999 339 16.3 101550 44
2011-08-01 07:33:17 51°13.635 2°56.018 -999 281 16.3 101550 43
2011-08-01 07:33:22 51°13.635 2°56.019 -999 342 16.3 101550 43
2011-08-01 07:33:27 51°13.635 2°56.019 -999 282 16.3 101550 44
2011-08-01 07:33:32 51°13.635 2°56.019 -999 344 16.3 101550 44
2011-08-01 07:33:37 51°13.636 2°56.019 -999 343 16.3 101550 44
2011-08-01 07:33:42 51°13.636 2°56.019 -999 346 16.3 101550 44
2011-08-01 07:33:47 51°13.636 2°56.019 -999 281 16.3 101550 44
2011-08-01 07:33:52 51°13.636 2°56.019 -999 345 16.3 101550 44
2011-08-01 07:33:57 51°13.636 2°56.019 -999 281 16.3 101550 44
2011-08-01 07:34:02 51°13.636 2°56.019 -999 347 16.3 101550 44
2011-08-01 07:34:07 51°13.636 2°56.019 -999 281 16.3 101550 44
2011-08-01 07:34:12 51°13.637 2°56.019 -999 343 16.3 101550 44
2011-08-01 07:34:17 51°13.637 2°56.019 -999 281 16.3 101550 44
2011-08-01 07:34:22 51°13.637 2°56.019 -999 345 16.3 101550 44
2011-08-01 07:34:27 51°13.637 2°56.018 -999 281 16.3 101550 44
2011-08-01 07:34:32 51°13.636 2°56.018 -999 347 16.3 101550 44
2011-08-01 07:34:37 51°13.636 2°56.018 -999 346 16.3 101550 44
2011-08-01 07:34:42 51°13.636 2°56.018 -999 340 16.3 101550 44
2011-08-01 07:34:47 51°13.636 2°56.018 -999 281 16.3 101550 44
2011-08-01 07:34:52 51°13.637 2°56.018 -999 341 16.3 101550 44
2011-08-01 07:34:57 51°13.637 2°56.018 -999 281 16.3 101550 44
2011-08-01 07:35:02 51°13.637 2°56.018 -999 338 16.3 101550 44